GFSNIL_prec_precacc6_210.txt.gz
Total_Precipitation_Accumulation
0.00 0.00 0.00 0.03 0.07 0.00 0.00 0.00 0.00 0.01 0.07 0.08 0.02 0.01 0.03 0.01 0.00 0.00 0.00 0.00 0.00 0.00
0.00 0.00 0.00 0.10 0.12 0.03 0.02 0.00 0.02 0.05 0.04 0.16 0.09 0.01 0.00 0.00 0.00 0.00 0.00 0.00 0.00 0.00
0.02 0.01 0.00 0.03 0.01 0.05 0.03 0.07 0.14 0.25 0.11 0.08 0.10 0.09 0.06 0.02 0.01 0.00 0.00 0.00 0.00 0.00
0.01 0.01 0.00 0.00 0.01 0.01 0.01 0.03 0.05 0.08 0.15 0.21 0.27 0.30 0.29 0.16 0.17 0.09 0.02 0.00 0.00 0.00
0.01 0.00 0.00 0.00 0.01 0.02 0.01 0.02 0.02 0.06 0.10 0.15 0.24 0.39 0.25 0.21 0.21 0.10 0.02 0.00 0.00 0.00
0.01 0.00 0.00 0.00 0.00 0.01 0.01 0.02 0.06 0.02 0.00 0.01 0.03 0.10 0.24 0.16 0.06 0.03 0.00 0.00 0.00 0.03
0.22 0.18 0.02 0.00 0.00 0.00 0.00 0.00 0.00 0.00 0.00 0.01 0.04 0.02 0.04 0.09 0.08 0.06 0.02 0.00 0.00 0.06
0.21 0.21 0.13 0.03 0.01 0.07 0.02 0.00 0.00 0.00 0.00 0.01 0.01 0.01 0.00 0.02 0.02 0.00 0.00 0.00 0.00 0.02
0.17 0.08 0.07 0.06 0.05 0.01 0.00 0.00 0.00 0.00 0.00 0.00 0.00 0.00 0.03 0.07 0.11 0.11 0.12 0.13 0.07 0.02
0.14 0.15 0.09 0.12 0.07 0.01 0.01 0.01 0.00 0.00 0.00 0.00 0.00 0.00 0.00 0.02 0.02 0.03 0.03 0.03 0.01 0.00
0.18 0.13 0.15 0.15 0.08 0.05 0.03 0.02 0.06 0.03 0.01 0.00 0.00 0.00 0.00 0.00 0.00 0.00 0.00 0.00 0.00 0.00
0.17 0.13 0.15 0.16 0.08 0.08 0.15 0.07 0.03 0.08 0.11 0.14 0.13 0.05 0.02 0.02 0.00 0.00 0.00 0.00 0.00 0.00
0.28 0.34 0.32 0.26 0.19 0.17 0.17 0.11 0.11 0.29 0.42 0.60 0.34 0.16 0.09 0.07 0.04 0.01 0.00 0.00 0.00 0.00
0.93 0.96 0.79 0.73 0.59 0.63 0.58 0.62 0.46 0.37 0.22 0.17 0.23 0.27 0.30 0.30 0.18 0.10 0.08 0.03 0.00 0.00

GFSNIL_prec_precacc6_216.txt.gz
Total_Precipitation_Accumulation
0.00 0.02 0.04 0.02 0.04 0.01 0.00 0.01 0.00 0.03 0.17 0.08 0.19 0.22 0.19 0.21 0.13 0.02 0.02 0.00 0.00 0.00
0.01 0.02 0.02 0.03 0.11 0.01 0.01 0.00 0.00 0.10 0.24 0.10 0.08 0.14 0.19 0.14 0.12 0.13 0.08 0.03 0.00 0.00
0.02 0.01 0.00 0.01 0.03 0.02 0.01 0.00 0.06 0.11 0.16 0.11 0.08 0.17 0.23 0.14 0.15 0.22 0.06 0.01 0.01 0.03
0.00 0.00 0.00 0.00 0.02 0.02 0.01 0.00 0.04 0.21 0.18 0.14 0.15 0.12 0.21 0.24 0.29 0.26 0.15 0.09 0.07 0.09
0.00 0.00 0.00 0.00 0.00 0.00 0.00 0.01 0.02 0.03 0.08 0.09 0.11 0.10 0.23 0.16 0.11 0.16 0.09 0.05 0.07 0.05
0.10 0.04 0.02 0.00 0.00 0.00 0.00 0.00 0.01 0.02 0.00 0.00 0.00 0.01 0.05 0.08 0.04 0.10 0.12 0.08 0.06 0.05
0.06 0.03 0.02 0.03 0.03 0.02 0.01 0.00 0.00 0.00 0.00 0.00 0.00 0.00 0.03 0.06 0.05 0.00 0.00 0.01 0.04 0.05
0.02 0.01 0.02 0.04 0.04 0.03 0.02 0.01 0.00 0.00 0.00 0.00 0.00 0.00 0.00 0.00 0.01 0.02 0.00 0.00 0.01 0.01
0.00 0.00 0.00 0.01 0.02 0.01 0.00 0.00 0.00 0.00 0.00 0.00 0.00 0.00 0.00 0.00 0.01 0.03 0.04 0.01 0.01 0.00
0.00 0.00 0.00 0.00 0.00 0.02 0.01 0.00 0.00 0.00 0.00 0.00 0.00 0.00 0.00 0.00 0.00 0.01 0.02 0.05 0.02 0.01
0.00 0.00 0.00 0.00 0.00 0.00 0.00 0.00 0.00 0.00 0.00 0.00 0.00 0.00 0.00 0.03 0.01 0.00 0.00 0.01 0.01 0.01
0.00 0.00 0.00 0.00 0.00 0.00 0.00 0.00 0.00 0.00 0.00 0.00 0.00 0.00 0.01 0.04 0.01 0.00 0.00 0.00 0.01 0.02
0.00 0.00 0.00 0.00 0.00 0.00 0.00 0.01 0.02 0.01 0.02 0.02 0.01 0.00 0.00 0.00 0.00 0.00 0.00 0.00 0.00 0.00
0.00 0.00 0.00 0.00 0.00 0.00 0.00 0.00 0.01 0.02 0.02 0.06 0.07 0.05 0.02 0.00 0.00 0.00 0.00 0.00 0.00 0.00

GFSNIL_prec_precacc6_219.txt.gz
Total_Precipitation_Accumulation
0.00 0.02 0.02 0.04 0.03 0.01 0.00 0.00 0.00 0.03 0.22 0.13 0.22 0.19 0.10 0.18 0.15 0.03 0.04 0.02 0.00 0.00
0.00 0.00 0.01 0.01 0.02 0.00 0.01 0.00 0.00 0.06 0.24 0.09 0.06 0.14 0.20 0.14 0.10 0.16 0.20 0.12 0.03 0.01
0.00 0.00 0.00 0.03 0.03 0.01 0.00 0.01 0.06 0.09 0.11 0.07 0.06 0.09 0.19 0.13 0.13 0.18 0.05 0.01 0.02 0.03
0.01 0.00 0.00 0.01 0.04 0.04 0.02 0.01 0.02 0.16 0.17 0.12 0.08 0.11 0.17 0.13 0.16 0.17 0.03 0.01 0.12 0.17
0.07 0.07 0.03 0.10 0.10 0.12 0.10 0.08 0.05 0.02 0.05 0.04 0.04 0.03 0.07 0.04 0.03 0.02 0.01 0.00 0.06 0.11
0.10 0.07 0.09 0.10 0.09 0.11 0.13 0.13 0.11 0.07 0.05 0.03 0.02 0.03 0.05 0.07 0.02 0.02 0.02 0.03 0.06 0.07
0.04 0.03 0.02 0.03 0.04 0.06 0.08 0.09 0.10 0.11 0.09 0.09 0.05 0.03 0.04 0.05 0.02 0.01 0.00 0.00 0.04 0.05
0.00 0.00 0.01 0.00 0.01 0.02 0.02 0.01 0.01 0.01 0.02 0.05 0.08 0.03 0.03 0.03 0.02 0.02 0.01 0.01 0.02 0.02
0.01 0.00 0.00 0.00 0.00 0.00 0.00 0.00 0.00 0.00 0.00 0.00 0.00 0.00 0.01 0.09 0.07 0.05 0.04 0.06 0.09 0.08
0.02 0.02 0.01 0.00 0.00 0.00 0.00 0.00 0.00 0.00 0.00 0.00 0.00 0.00 0.00 0.07 0.08 0.06 0.04 0.04 0.08 0.06
0.02 0.02 0.03 0.03 0.02 0.01 0.00 0.00 0.00 0.00 0.00 0.00 0.00 0.00 0.00 0.05 0.04 0.02 0.03 0.02 0.04 0.04
0.01 0.00 0.02 0.03 0.01 0.02 0.02 0.01 0.00 0.00 0.00 0.00 0.00 0.00 0.01 0.04 0.01 0.00 0.00 0.01 0.01 0.03
0.01 0.01 0.00 0.03 0.01 0.01 0.03 0.02 0.02 0.01 0.00 0.01 0.01 0.00 0.00 0.00 0.00 0.00 0.00 0.00 0.01 0.00
0.00 0.00 0.01 0.01 0.03 0.02 0.02 0.02 0.03 0.03 0.02 0.02 0.02 0.01 0.00 0.00 0.01 0.01 0.01 0.00 0.00 0.00

GFSNIL_prec_precacc6_222.txt.gz
Total_Precipitation_Accumulation
0.02 0.04 0.02 0.06 0.04 0.01 0.00 0.00 0.00 0.01 0.08 0.14 0.18 0.09 0.12 0.11 0.08 0.02 0.03 0.02 0.00 0.00
0.03 0.03 0.04 0.04 0.07 0.02 0.00 0.00 0.00 0.01 0.09 0.12 0.11 0.10 0.14 0.09 0.03 0.07 0.12 0.09 0.03 0.01
0.12 0.08 0.04 0.10 0.08 0.06 0.03 0.04 0.03 0.11 0.06 0.10 0.11 0.06 0.13 0.09 0.06 0.07 0.02 0.00 0.02 0.04
0.09 0.16 0.18 0.15 0.13 0.11 0.13 0.15 0.10 0.15 0.13 0.16 0.12 0.13 0.14 0.12 0.11 0.10 0.04 0.02 0.13 0.17
0.12 0.17 0.20 0.42 0.27 0.23 0.20 0.18 0.18 0.21 0.18 0.16 0.12 0.11 0.07 0.06 0.06 0.09 0.05 0.02 0.15 0.15
0.16 0.09 0.19 0.22 0.15 0.14 0.16 0.16 0.16 0.14 0.15 0.12 0.12 0.13 0.10 0.08 0.06 0.07 0.06 0.09 0.10 0.13
0.04 0.04 0.05 0.07 0.08 0.11 0.10 0.10 0.12 0.15 0.13 0.14 0.12 0.12 0.10 0.07 0.06 0.05 0.03 0.05 0.06 0.07
0.00 0.01 0.02 0.01 0.02 0.03 0.02 0.01 0.02 0.02 0.02 0.06 0.12 0.06 0.07 0.12 0.07 0.08 0.07 0.07 0.05 0.04
0.01 0.01 0.02 0.02 0.02 0.01 0.01 0.00 0.00 0.00 0.00 0.00 0.00 0.00 0.02 0.13 0.12 0.14 0.16 0.12 0.13 0.13
0.03 0.03 0.04 0.04 0.03 0.02 0.01 0.01 0.00 0.00 0.00 0.00 0.00 0.00 0.00 0.08 0.09 0.09 0.09 0.09 0.19 0.11
0.02 0.03 0.04 0.04 0.04 0.03 0.02 0.02 0.02 0.03 0.02 0.01 0.00 0.00 0.00 0.02 0.03 0.02 0.03 0.03 0.06 0.08
0.02 0.02 0.03 0.04 0.03 0.04 0.05 0.03 0.02 0.03 0.02 0.01 0.00 0.00 0.00 0.00 0.01 0.00 0.00 0.00 0.01 0.02
0.01 0.01 0.01 0.04 0.03 0.03 0.05 0.03 0.03 0.02 0.02 0.02 0.00 0.00 0.00 0.00 0.01 0.01 0.00 0.00 0.01 0.00
0.00 0.00 0.01 0.02 0.03 0.03 0.03 0.03 0.03 0.03 0.01 0.00 0.03 0.01 0.00 0.00 0.01 0.03 0.04 0.04 0.00 0.00